Starlink 11683

operational
NORAD ID: 64239 Int'l Des: 2025-119 Owner: SPXS Country: US Constellation: starlink
LEOCIRCULAR

About Starlink 11683

Description loading...

Live Position

Loading 3D Globe...

Upcoming Passes

Altitude History

Altitude vs Time

uPlot chart will show altitude changes over time

Two-Line Element Set

1 64239U 25119G 26095.23850877 .00244859 00000-0 18583-2 0 9993
2 64239 43.0003 48.7718 0002131 294.6200 65.4446 15.70810666 49429
Epoch: Apr 5, 2026 • Age: 13 hours

Current Status

Altitude 360.0 km
Velocity 7.70 km/s
Sub-Earth Point 41.62°N, 44.64°E
Launch Date Jun 3, 2025
Age 0.8 years
Type internet

Technical Details

Classification Payload
Mass 960.00 kg
Dry Mass 910.00 kg
Total Mass 960.00 kg
Length 0.30 m
Diameter 4.10 m
Span 29.00 m
Shape Box + pan
Manufacturer SPXS
Bus Type Starlink V2MD
Phase Status In Orbit
Owner/State SPXS/US

Large Constellations

Loading constellations...